START_TIME,STEP,MOV.,M29,t_acc.,H22,t_acc.,H26,t_acc.,H30,t_acc.
1979-08-05 12:00:30.500 ,0,0,0.,24.0,0.,24.0,0.,24.0,0.,24.0
1979-08-05 12:00:54.500 ,1,1,0.,24.0,0.,24.0,0.,24.0,0.,24.0
1979-08-05 12:01:18.500 ,1,0,0.,24.0,0.,24.0,0.,24.0,0.,24.0
1979-08-05 12:01:42.500 ,2,1,0.,24.0,0.,24.0,0.,24.0,0.,24.0
1979-08-05 12:02:06.500 ,2,0,0.,24.0,0.,24.0,0.,24.0,0.,24.0
1979-08-05 12:02:30.500 ,3,1,0.,24.0,0.,24.0,0.,24.0,0.,24.0
1979-08-05 12:02:54.500 ,3,0,0.,24.0,0.,24.0,0.,24.0,0.,24.0
1979-08-05 12:03:18.500 ,4,1,0.,24.0,0.,24.0,0.,24.0,0.,24.0
1979-08-05 12:03:42.500 ,4,0,0.,24.0,0.,24.0,0.,24.0,0.,24.0
1979-08-05 12:04:06.490 ,5,1,0.,24.0,0.,24.0,0.,24.0,0.,24.0
1979-08-05 12:04:30.490 ,5,0,0.,24.0,0.,24.0,0.,24.0,0.,24.0
1979-08-05 12:04:54.490 ,6,1,0.,24.0,0.,24.0,0.,24.0,0.,24.0
1979-08-05 12:05:18.490 ,6,0,0.,24.0,0.,24.0,0.,24.0,0.,24.0
1979-08-05 12:05:42.490 ,7,1,0.,24.0,0.,24.0,0.,24.0,0.,24.0
1979-08-05 12:06:06.490 ,7,0,0.,24.0,0.,24.0,0.,24.0,0.,24.0
1979-08-05 12:06:30.490 ,7,1,0.,24.0,0.,24.0,0.,24.0,0.,24.0
1979-08-05 12:06:54.490 ,7,0,0.,24.0,0.,24.0,0.,24.0,0.,24.0
1979-08-05 12:07:18.490 ,6,1,0.,24.0,0.,24.0,0.,24.0,0.,24.0
1979-08-05 12:07:42.490 ,6,0,0.,24.0,0.,24.0,0.,24.0,0.,24.0
1979-08-05 12:08:06.490 ,5,1,0.,24.0,0.,24.0,0.,24.0,0.,24.0
1979-08-05 12:08:30.490 ,5,0,0.,24.0,0.,24.0,0.,24.0,0.,24.0
1979-08-05 12:08:54.490 ,4,1,0.,24.0,0.,24.0,0.,24.0,0.,24.0
1979-08-05 12:09:18.490 ,4,0,0.,24.0,0.,24.0,0.,24.0,0.,24.0
1979-08-05 12:09:42.490 ,3,1,0.,24.0,0.,24.0,0.,24.0,0.,24.0
1979-08-05 12:10:06.490 ,3,0,0.,24.0,0.,24.0,0.,24.0,0.,24.0
1979-08-05 12:10:30.490 ,2,1,0.,24.0,0.,24.0,0.,24.0,0.,24.0
1979-08-05 12:10:54.490 ,2,0,0.,24.0,0.,24.0,0.,24.0,0.,24.0
1979-08-05 12:11:18.490 ,1,1,0.,24.0,0.,24.0,0.,24.0,0.,24.0
1979-08-05 12:11:42.490 ,1,0,0.,24.0,0.,24.0,0.,24.0,0.,24.0
1979-08-05 12:12:06.490 ,0,1,0.,24.0,0.,24.0,0.,24.0,0.,24.0
1979-08-05 12:12:30.490 ,0,0,0.,24.0,0.,24.0,0.,24.0,0.,24.0
1979-08-05 12:12:54.490 ,0,1,0.,24.0,0.,24.0,0.,24.0,0.,24.0
1979-08-05 12:13:18.490 ,0,0,0.,24.0,0.,24.0,0.,24.0,0.,24.0
1979-08-05 12:13:42.490 ,1,1,0.,24.0,0.,24.0,0.,24.0,0.,24.0
1979-08-05 12:14:06.490 ,1,0,0.,24.0,0.,24.0,0.,24.0,0.,24.0
1979-08-05 12:14:30.490 ,2,1,0.,24.0,0.,24.0,0.,24.0,0.,24.0
1979-08-05 12:14:54.490 ,2,0,0.,24.0,0.,24.0,0.,24.0,0.,24.0
1979-08-05 12:15:18.490 ,3,1,0.,24.0,0.,24.0,0.,24.0,0.,24.0
1979-08-05 12:15:42.490 ,3,0,0.,24.0,0.,24.0,0.,24.0,0.,24.0
1979-08-05 12:16:06.490 ,4,1,0.,24.0,0.,24.0,0.,24.0,0.,24.0
1979-08-05 12:16:30.490 ,4,0,0.,24.0,0.,24.0,0.,24.0,0.,24.0
1979-08-05 12:16:54.490 ,5,1,0.,24.0,0.,24.0,0.,24.0,0.,24.0
1979-08-05 12:17:18.490 ,5,0,0.,24.0,0.,24.0,0.,24.0,0.,24.0
1979-08-05 12:17:42.490 ,6,1,0.,24.0,0.,24.0,0.,24.0,0.,24.0
1979-08-05 12:18:06.490 ,6,0,0.,24.0,0.,24.0,0.,24.0,0.,24.0
1979-08-05 12:18:30.490 ,7,0,0.,24.0,0.,24.0,0.,24.0,0.,24.0
1979-08-05 12:18:54.490 ,7,0,0.,24.0,0.,24.0,0.,24.0,0.,24.0
1979-08-05 12:19:18.490 ,5,1,0.,24.0,0.,24.0,0.,24.0,0.,24.0
1979-08-05 12:19:42.490 ,1,1,0.,24.0,0.,24.0,0.,24.0,0.,24.0
1979-08-05 12:20:06.490 ,2,1,0.,24.0,0.,24.0,0.,24.0,0.,24.0
1979-08-05 12:20:30.490 ,6,1,0.,24.0,0.,24.0,0.,24.0,0.,24.0
1979-08-05 12:20:54.490 ,5,1,0.,24.0,0.,24.0,0.,24.0,0.,24.0
1979-08-05 12:21:18.490 ,1,1,0.,24.0,0.,24.0,0.,24.0,0.,24.0
1979-08-05 12:21:42.490 ,2,1,0.,24.0,0.,24.0,0.,24.0,0.,24.0
1979-08-05 12:22:06.490 ,6,1,0.,24.0,0.,24.0,0.,24.0,0.,24.0
1979-08-05 12:22:30.490 ,5,1,0.,24.0,0.,24.0,0.,24.0,0.,24.0
1979-08-05 12:22:54.490 ,1,1,0.,24.0,0.,24.0,0.,24.0,0.,24.0
1979-08-05 12:23:18.490 ,2,1,0.,24.0,0.,24.0,0.,24.0,0.,24.0
1979-08-05 12:23:42.490 ,6,1,0.,24.0,0.,24.0,0.,24.0,0.,24.0
1979-08-05 12:24:06.490 ,5,1,0.,24.0,0.,24.0,0.,24.0,0.,24.0
1979-08-05 12:24:30.490 ,1,1,0.,24.0,0.,24.0,0.,24.0,0.,24.0
1979-08-05 12:24:54.490 ,2,1,0.,24.0,0.,24.0,0.,24.0,0.,24.0
1979-08-05 12:25:18.490 ,6,1,0.,24.0,0.,24.0,0.,24.0,0.,24.0
1979-08-05 12:25:42.490 ,5,1,0.,24.0,0.,24.0,0.,24.0,0.,24.0
1979-08-05 12:26:06.490 ,1,1,0.,24.0,0.,24.0,0.,24.0,0.,24.0
1979-08-05 12:26:30.490 ,2,1,0.,24.0,0.,24.0,0.,24.0,0.,24.0
1979-08-05 12:26:54.490 ,6,1,0.,24.0,0.,24.0,0.,24.0,0.,24.0
1979-08-05 12:27:18.490 ,5,1,0.,24.0,0.,24.0,0.,24.0,0.,24.0
1979-08-05 12:27:42.490 ,1,1,0.,24.0,0.,24.0,0.,24.0,0.,24.0
1979-08-05 12:28:06.490 ,2,1,0.,24.0,0.,24.0,0.,24.0,0.,24.0
1979-08-05 12:28:30.490 ,6,1,0.,24.0,0.,24.0,0.,24.0,0.,24.0
1979-08-05 12:28:54.490 ,5,1,0.,24.0,0.,24.0,0.,24.0,0.,24.0
1979-08-05 12:29:18.490 ,1,1,0.,24.0,0.,24.0,0.,24.0,0.,24.0
1979-08-05 12:29:42.490 ,0,0,0.,24.0,0.,24.0,0.,24.0,0.,24.0
1979-08-05 12:30:06.490 ,0,0,0.,24.0,0.,24.0,0.,24.0,0.,24.0
1979-08-05 12:30:30.490 ,5,1,0.,24.0,0.,24.0,0.,24.0,0.,24.0
1979-08-05 12:30:54.490 ,5,0,0.,24.0,0.,24.0,0.,24.0,0.,24.0
1979-08-05 12:31:18.490 ,4,1,0.,24.0,0.,24.0,0.,24.0,0.,24.0
1979-08-05 12:31:42.490 ,4,0,0.,24.0,0.,24.0,0.,24.0,0.,24.0
1979-08-05 12:32:06.490 ,3,1,0.,24.0,0.,24.0,0.,24.0,0.,24.0
1979-08-05 12:32:30.490 ,3,0,0.,24.0,0.,24.0,0.,24.0,0.,24.0
1979-08-05 12:32:54.490 ,2,1,0.,24.0,0.,24.0,0.,24.0,0.,24.0
1979-08-05 12:33:18.490 ,2,0,0.,24.0,0.,24.0,0.,24.0,0.,24.0
1979-08-05 12:33:42.490 ,1,0,,0,,0,,0,,0
1979-08-05 12:34:06.490 ,1,0,0.,24.0,0.,24.0,0.,24.0,0.,24.0
1979-08-05 12:34:30.490 ,0,1,0.,24.0,0.,24.0,0.,24.0,0.,24.0
1979-08-05 12:34:54.490 ,0,0,0.,24.0,0.,24.0,0.,24.0,0.,24.0
1979-08-05 12:35:18.490 ,0,1,0.,24.0,0.,24.0,0.,24.0,0.,24.0
1979-08-05 12:35:42.490 ,0,0,0.,24.0,0.,24.0,0.,24.0,0.,24.0
1979-08-05 12:36:06.490 ,1,1,0.,24.0,0.,24.0,0.,24.0,0.,24.0
1979-08-05 12:36:30.490 ,1,0,0.,24.0,0.,24.0,0.,24.0,0.,24.0
1979-08-05 12:36:54.490 ,2,1,0.,24.0,0.,24.0,0.,24.0,0.,24.0
1979-08-05 12:37:18.490 ,2,0,0.,24.0,0.,24.0,0.,24.0,0.,24.0
1979-08-05 12:37:42.490 ,3,1,0.,24.0,0.,24.0,0.,24.0,0.,24.0
1979-08-05 12:38:06.490 ,3,0,0.,24.0,0.,24.0,0.,24.0,0.,24.0
1979-08-05 12:38:30.490 ,4,1,0.,24.0,0.,24.0,0.,24.0,0.,24.0
1979-08-05 12:38:54.490 ,4,0,0.,24.0,0.,24.0,0.,24.0,0.,24.0
1979-08-05 12:39:18.490 ,5,1,0.,24.0,0.,24.0,0.,24.0,0.,24.0
1979-08-05 12:39:42.490 ,5,0,0.,24.0,0.,24.0,0.,24.0,0.,24.0
1979-08-05 12:40:06.490 ,6,1,0.,24.0,0.,24.0,0.,24.0,0.,24.0
1979-08-05 12:40:30.490 ,6,0,0.,24.0,0.,24.0,0.,24.0,0.,24.0
1979-08-05 12:40:54.490 ,7,1,0.,24.0,0.,24.0,0.,24.0,0.,24.0
1979-08-05 12:41:18.490 ,7,0,0.,24.0,0.,24.0,0.,24.0,0.,24.0
1979-08-05 12:41:42.490 ,7,1,0.,24.0,0.,24.0,0.,24.0,0.,24.0
1979-08-05 12:42:06.490 ,7,0,0.,24.0,0.,24.0,0.,24.0,0.,24.0
1979-08-05 12:42:30.490 ,6,1,0.,24.0,0.,24.0,0.,24.0,0.,24.0
1979-08-05 12:42:54.490 ,6,0,0.,24.0,0.,24.0,0.,24.0,0.,24.0
1979-08-05 12:43:18.490 ,5,1,0.,24.0,0.,24.0,0.,24.0,0.,24.0
1979-08-05 12:43:42.490 ,5,0,0.,24.0,0.,24.0,0.,24.0,0.,24.0
1979-08-05 12:44:06.490 ,4,1,0.,24.0,0.,24.0,0.,24.0,0.,24.0
1979-08-05 12:44:30.490 ,4,0,0.,24.0,0.,24.0,0.,24.0,0.,24.0
1979-08-05 12:44:54.490 ,3,1,0.,24.0,0.,24.0,0.,24.0,0.,24.0
1979-08-05 12:45:18.490 ,3,0,0.,24.0,0.,24.0,0.,24.0,0.,24.0
1979-08-05 12:45:42.490 ,2,1,0.,24.0,0.,24.0,0.,24.0,0.,24.0
1979-08-05 12:46:06.490 ,2,0,0.,24.0,0.,24.0,0.,24.0,0.,24.0
1979-08-05 12:46:30.490 ,1,1,0.,24.0,0.,24.0,0.,24.0,0.,24.0
1979-08-05 12:46:54.490 ,1,0,0.,24.0,0.,24.0,0.,24.0,0.,24.0
1979-08-05 12:47:18.490 ,0,1,0.,24.0,0.,24.0,0.,24.0,0.,24.0
1979-08-05 12:47:42.490 ,0,0,0.,24.0,0.,24.0,0.,24.0,0.,24.0
1979-08-05 12:48:06.490 ,0,1,0.,24.0,0.,24.0,0.,24.0,0.,24.0
1979-08-05 12:48:30.490 ,0,0,0.,24.0,0.,24.0,0.,24.0,0.,24.0
1979-08-05 12:48:54.490 ,1,1,0.,24.0,0.,24.0,0.,24.0,0.,24.0
1979-08-05 12:49:18.490 ,1,0,0.,24.0,0.,24.0,0.,24.0,0.,24.0
1979-08-05 12:49:42.490 ,2,1,0.,24.0,0.,24.0,0.,24.0,0.,24.0
1979-08-05 12:50:06.490 ,2,0,0.,24.0,0.,24.0,0.,24.0,0.,24.0
1979-08-05 12:50:30.490 ,3,1,0.,24.0,0.,24.0,0.,24.0,0.,24.0
1979-08-05 12:50:54.490 ,3,0,0.,24.0,0.,24.0,0.,24.0,1.,24.0
1979-08-05 12:51:18.490 ,4,1,0.,24.0,0.,24.0,0.,24.0,0.,24.0
1979-08-05 12:51:42.490 ,4,0,0.,24.0,0.,24.0,0.,24.0,0.,24.0
1979-08-05 12:52:06.490 ,5,1,0.,24.0,0.,24.0,0.,24.0,0.,24.0
1979-08-05 12:52:30.490 ,5,0,0.,24.0,0.,24.0,0.,24.0,0.,24.0
1979-08-05 12:52:54.490 ,6,1,0.,24.0,0.,24.0,0.,24.0,0.,24.0
1979-08-05 12:53:18.490 ,6,0,0.,24.0,0.,24.0,0.,24.0,0.,24.0
1979-08-05 12:53:42.490 ,7,1,0.,24.0,0.,24.0,0.,24.0,0.,24.0
1979-08-05 12:54:06.490 ,7,0,0.,24.0,0.,24.0,0.,24.0,0.,24.0
1979-08-05 12:54:30.490 ,7,1,0.,24.0,0.,24.0,0.,24.0,0.,24.0
1979-08-05 12:54:54.490 ,7,0,0.,24.0,0.,24.0,0.,24.0,0.,24.0
1979-08-05 12:55:18.490 ,6,1,0.,24.0,0.,24.0,0.,24.0,0.,24.0
1979-08-05 12:55:42.490 ,6,0,0.,24.0,0.,24.0,0.,24.0,0.,24.0
1979-08-05 12:56:06.490 ,5,1,0.,24.0,0.,24.0,0.,24.0,0.,24.0
1979-08-05 12:56:30.490 ,5,0,0.,24.0,0.,24.0,0.,24.0,0.,24.0
1979-08-05 12:56:54.490 ,4,1,0.,24.0,0.,24.0,0.,24.0,0.,24.0
1979-08-05 12:57:18.490 ,4,0,0.,24.0,0.,24.0,0.,24.0,0.,24.0
1979-08-05 12:57:42.490 ,3,1,0.,24.0,0.,24.0,0.,24.0,0.,24.0
1979-08-05 12:58:06.490 ,3,0,0.,24.0,0.,24.0,0.,24.0,0.,24.0
1979-08-05 12:58:30.490 ,2,1,0.,24.0,0.,24.0,0.,24.0,0.,24.0
1979-08-05 12:58:54.490 ,2,0,0.,24.0,0.,24.0,0.,24.0,0.,24.0
1979-08-05 12:59:18.490 ,1,1,0.,24.0,0.,24.0,0.,24.0,0.,24.0
1979-08-05 12:59:42.490 ,1,0,0.,24.0,0.,24.0,0.,24.0,0.,24.0
1979-08-05 13:00:06.490 ,0,1,0.,24.0,0.,24.0,0.,24.0,0.,24.0
1979-08-05 13:00:30.490 ,0,0,0.,24.0,0.,24.0,0.,24.0,0.,24.0
1979-08-05 13:00:54.490 ,0,1,0.,24.0,0.,24.0,0.,24.0,0.,24.0
1979-08-05 13:01:18.490 ,0,0,0.,24.0,0.,24.0,0.,24.0,0.,24.0
1979-08-05 13:01:42.490 ,1,1,0.,24.0,0.,24.0,0.,24.0,0.,24.0
1979-08-05 13:02:06.490 ,1,0,0.,24.0,0.,24.0,0.,24.0,0.,24.0
1979-08-05 13:02:30.490 ,2,1,0.,24.0,0.,24.0,0.,24.0,0.,24.0
1979-08-05 13:02:54.490 ,2,0,0.,24.0,0.,24.0,0.,24.0,0.,24.0
1979-08-05 13:03:18.490 ,3,1,0.,24.0,0.,24.0,0.,24.0,0.,24.0
1979-08-05 13:03:42.490 ,3,0,0.,24.0,0.,24.0,0.,24.0,0.,24.0
1979-08-05 13:04:06.490 ,4,1,0.,24.0,0.,24.0,0.,24.0,0.,24.0
1979-08-05 13:04:30.490 ,4,0,0.,24.0,0.,24.0,0.,24.0,0.,24.0
1979-08-05 13:04:54.490 ,5,1,0.,24.0,0.,24.0,0.,24.0,0.,24.0
1979-08-05 13:05:18.490 ,5,0,0.,24.0,0.,24.0,0.,24.0,0.,24.0
1979-08-05 13:05:42.490 ,6,1,0.,24.0,0.,24.0,0.,24.0,0.,24.0
1979-08-05 13:06:06.490 ,6,0,0.,24.0,0.,24.0,0.,24.0,0.,24.0
1979-08-05 13:06:30.490 ,7,0,0.,24.0,0.,24.0,0.,24.0,0.,24.0
1979-08-05 13:06:54.490 ,7,0,0.,24.0,0.,24.0,0.,24.0,0.,24.0
1979-08-05 13:07:18.490 ,5,1,0.,24.0,0.,24.0,0.,24.0,0.,24.0
1979-08-05 13:07:42.490 ,1,1,0.,24.0,0.,24.0,0.,24.0,0.,24.0
1979-08-05 13:08:06.490 ,2,1,0.,24.0,0.,24.0,0.,24.0,0.,24.0
1979-08-05 13:08:30.490 ,0,0,0.,24.0,0.,24.0,0.,24.0,0.,24.0
1979-08-05 13:08:59.890 ,0,0,0.,24.0,0.,24.0,0.,24.0,0.,24.0
1979-08-05 13:09:18.490 ,1,1,0.,24.0,0.,24.0,0.,24.0,0.,24.0
1979-08-05 13:09:42.490 ,2,1,0.,24.0,0.,24.0,0.,24.0,0.,24.0
1979-08-05 13:10:06.490 ,6,1,0.,24.0,0.,24.0,0.,24.0,0.,24.0
1979-08-05 13:10:30.490 ,5,1,0.,24.0,0.,24.0,0.,24.0,0.,24.0
1979-08-05 13:10:54.490 ,1,1,0.,24.0,0.,24.0,0.,24.0,0.,24.0
1979-08-05 13:11:18.490 ,2,1,0.,24.0,0.,24.0,0.,24.0,0.,24.0
1979-08-05 13:11:42.490 ,6,1,0.,24.0,0.,24.0,0.,24.0,0.,24.0
1979-08-05 13:12:06.490 ,5,1,0.,24.0,0.,24.0,0.,24.0,0.,24.0
1979-08-05 13:12:30.490 ,1,1,0.,24.0,0.,24.0,0.,24.0,0.,24.0
1979-08-05 13:12:54.490 ,2,1,0.,24.0,0.,24.0,0.,24.0,0.,24.0
1979-08-05 13:13:42.490 ,5,1,0.,24.0,0.,24.0,0.,24.0,0.,24.0
1979-08-05 13:14:06.490 ,1,1,0.,24.0,0.,24.0,0.,24.0,0.,24.0
1979-08-05 13:14:30.490 ,2,1,0.,24.0,0.,24.0,0.,24.0,0.,24.0
1979-08-05 13:14:54.490 ,6,1,0.,24.0,0.,24.0,0.,24.0,0.,24.0
1979-08-05 13:15:18.490 ,5,1,0.,24.0,0.,24.0,0.,24.0,0.,24.0
1979-08-05 13:15:42.490 ,1,1,0.,24.0,0.,24.0,0.,24.0,0.,24.0
1979-08-05 13:16:06.490 ,2,1,0.,24.0,0.,24.0,0.,24.0,0.,24.0
1979-08-05 13:16:30.490 ,6,1,0.,24.0,0.,24.0,0.,24.0,0.,24.0
1979-08-05 13:16:54.490 ,5,1,0.,24.0,0.,24.0,0.,24.0,0.,24.0
1979-08-05 13:17:18.490 ,1,1,0.,24.0,0.,24.0,0.,24.0,0.,24.0
1979-08-05 13:17:42.490 ,0,0,0.,24.0,0.,24.0,0.,24.0,0.,24.0
1979-08-05 13:18:06.490 ,0,0,0.,24.0,0.,24.0,0.,24.0,0.,24.0
1979-08-05 13:18:30.490 ,5,1,0.,24.0,0.,24.0,0.,24.0,0.,24.0
1979-08-05 13:18:54.490 ,5,0,0.,24.0,0.,24.0,0.,24.0,0.,24.0
1979-08-05 13:19:18.490 ,4,1,0.,24.0,0.,24.0,0.,24.0,0.,24.0
1979-08-05 13:19:42.490 ,4,0,0.,24.0,0.,24.0,0.,24.0,0.,24.0
1979-08-05 13:20:06.490 ,3,1,0.,24.0,0.,24.0,0.,24.0,0.,24.0
1979-08-05 13:20:30.490 ,3,0,0.,24.0,0.,24.0,0.,24.0,0.,24.0
1979-08-05 13:20:54.490 ,2,1,0.,24.0,0.,24.0,0.,24.0,0.,24.0
1979-08-05 13:21:18.490 ,2,0,0.,24.0,0.,24.0,0.,24.0,0.,24.0
1979-08-05 13:21:42.490 ,1,1,0.,24.0,0.,24.0,0.,24.0,0.,24.0
1979-08-05 13:22:06.490 ,1,0,0.,24.0,0.,24.0,0.,24.0,0.,24.0
1979-08-05 13:22:30.490 ,0,1,0.,24.0,0.,24.0,0.,24.0,0.,24.0
1979-08-05 13:22:54.490 ,0,0,0.,24.0,0.,24.0,0.,24.0,0.,24.0
1979-08-05 13:23:18.490 ,0,1,0.,24.0,0.,24.0,0.,24.0,0.,24.0
1979-08-05 13:23:42.490 ,0,0,0.,24.0,0.,24.0,0.,24.0,0.,24.0
1979-08-05 13:24:06.490 ,1,1,0.,24.0,0.,24.0,0.,24.0,0.,24.0
1979-08-05 13:24:30.490 ,1,0,0.,24.0,0.,24.0,0.,24.0,0.,24.0
1979-08-05 13:24:54.490 ,2,1,0.,24.0,0.,24.0,0.,24.0,0.,24.0
1979-08-05 13:25:18.490 ,2,0,0.,24.0,0.,24.0,0.,24.0,0.,24.0
1979-08-05 13:25:42.490 ,3,1,0.,24.0,0.,24.0,0.,24.0,0.,24.0
1979-08-05 13:26:06.490 ,3,0,0.,24.0,0.,24.0,0.,24.0,0.,24.0
1979-08-05 13:26:30.490 ,4,1,0.,24.0,0.,24.0,0.,24.0,0.,24.0
1979-08-05 13:26:54.490 ,4,0,0.,24.0,0.,24.0,0.,24.0,0.,24.0
1979-08-05 13:27:18.490 ,5,1,1.,24.0,0.,24.0,0.,24.0,0.,24.0
1979-08-05 13:27:42.490 ,5,0,0.,24.0,0.,24.0,0.,24.0,0.,24.0
1979-08-05 13:28:06.490 ,6,1,0.,24.0,0.,24.0,0.,24.0,0.,24.0
1979-08-05 13:28:30.490 ,6,0,0.,24.0,0.,24.0,0.,24.0,0.,24.0
1979-08-05 13:28:54.490 ,7,1,0.,24.0,0.,24.0,0.,24.0,0.,24.0
1979-08-05 13:29:18.490 ,7,0,0.,24.0,0.,24.0,0.,24.0,0.,24.0
1979-08-05 13:29:42.490 ,7,1,0.,24.0,0.,24.0,0.,24.0,0.,24.0
1979-08-05 13:30:06.490 ,7,0,0.,24.0,0.,24.0,0.,24.0,0.,24.0
1979-08-05 13:30:30.490 ,6,1,0.,24.0,0.,24.0,0.,24.0,0.,24.0
1979-08-05 13:30:54.490 ,6,0,0.,24.0,0.,24.0,0.,24.0,0.,24.0
1979-08-05 13:31:18.490 ,5,1,0.,24.0,0.,24.0,0.,24.0,0.,24.0
1979-08-05 13:31:42.490 ,5,0,0.,24.0,0.,24.0,0.,24.0,0.,24.0
1979-08-05 13:32:06.490 ,4,1,0.,24.0,0.,24.0,0.,24.0,0.,24.0
1979-08-05 13:32:30.490 ,4,0,0.,24.0,0.,24.0,0.,24.0,0.,24.0
1979-08-05 13:32:54.490 ,3,1,0.,24.0,0.,24.0,0.,24.0,0.,24.0
1979-08-05 13:33:18.490 ,3,0,0.,24.0,0.,24.0,0.,24.0,0.,24.0
1979-08-05 13:33:42.490 ,2,1,0.,24.0,0.,24.0,0.,24.0,0.,24.0
1979-08-05 13:34:06.490 ,2,0,0.,24.0,0.,24.0,0.,24.0,0.,24.0
1979-08-05 13:34:30.490 ,1,1,0.,24.0,0.,24.0,0.,24.0,0.,24.0
1979-08-05 13:34:54.490 ,1,0,0.,24.0,0.,24.0,0.,24.0,0.,24.0
1979-08-05 13:35:18.490 ,0,1,0.,24.0,0.,24.0,0.,24.0,0.,24.0
1979-08-05 13:35:42.490 ,0,0,0.,24.0,0.,24.0,0.,24.0,0.,24.0
1979-08-05 13:36:06.490 ,0,1,0.,24.0,0.,24.0,0.,24.0,0.,24.0
1979-08-05 13:36:30.490 ,0,0,0.,24.0,0.,24.0,0.,24.0,0.,24.0
1979-08-05 13:36:54.490 ,1,1,0.,24.0,0.,24.0,0.,24.0,0.,24.0
1979-08-05 13:37:18.490 ,1,0,0.,24.0,0.,24.0,1.,24.0,0.,24.0
1979-08-05 13:37:42.490 ,2,1,0.,24.0,0.,24.0,0.,24.0,0.,24.0
1979-08-05 13:38:06.490 ,2,0,0.,24.0,0.,24.0,0.,24.0,0.,24.0
1979-08-05 13:38:30.490 ,3,1,0.,24.0,0.,24.0,0.,24.0,0.,24.0
1979-08-05 13:38:54.490 ,3,0,0.,24.0,0.,24.0,0.,24.0,0.,24.0
1979-08-05 13:39:18.490 ,4,1,0.,24.0,0.,24.0,0.,24.0,0.,24.0
1979-08-05 13:39:42.490 ,4,0,0.,24.0,0.,24.0,0.,24.0,0.,24.0
1979-08-05 13:40:06.490 ,5,1,0.,24.0,0.,24.0,0.,24.0,0.,24.0
1979-08-05 13:40:30.490 ,5,0,0.,24.0,0.,24.0,0.,24.0,0.,24.0
1979-08-05 13:40:54.490 ,6,1,0.,24.0,0.,24.0,0.,24.0,0.,24.0
1979-08-05 13:41:18.490 ,6,0,0.,24.0,0.,24.0,0.,24.0,0.,24.0
1979-08-05 13:41:42.490 ,7,1,0.,24.0,0.,24.0,0.,24.0,0.,24.0
1979-08-05 13:42:06.490 ,7,0,0.,24.0,0.,24.0,0.,24.0,0.,24.0
1979-08-05 13:42:30.490 ,7,1,0.,24.0,0.,24.0,0.,24.0,0.,24.0
1979-08-05 13:42:54.490 ,7,0,0.,24.0,0.,24.0,0.,24.0,0.,24.0
1979-08-05 13:43:18.490 ,6,1,0.,24.0,0.,24.0,0.,24.0,0.,24.0
1979-08-05 13:43:42.490 ,6,0,0.,24.0,0.,24.0,0.,24.0,0.,24.0
1979-08-05 13:44:06.490 ,5,1,0.,24.0,0.,24.0,0.,24.0,0.,24.0
1979-08-05 13:44:30.490 ,5,0,0.,24.0,0.,24.0,0.,24.0,0.,24.0
1979-08-05 13:44:54.490 ,4,1,0.,24.0,0.,24.0,0.,24.0,0.,24.0
1979-08-05 13:45:18.490 ,4,0,0.,24.0,0.,24.0,0.,24.0,0.,24.0
1979-08-05 13:45:42.490 ,3,1,0.,24.0,0.,24.0,0.,24.0,0.,24.0
1979-08-05 13:46:06.490 ,3,0,0.,24.0,0.,24.0,0.,24.0,0.,24.0
1979-08-05 13:46:30.490 ,2,1,0.,24.0,0.,24.0,0.,24.0,0.,24.0
1979-08-05 13:46:54.490 ,2,0,0.,24.0,0.,24.0,0.,24.0,0.,24.0
1979-08-05 13:47:18.490 ,1,1,0.,24.0,0.,24.0,0.,24.0,0.,24.0
1979-08-05 13:47:42.490 ,1,0,1.,24.0,0.,24.0,0.,24.0,0.,24.0
1979-08-05 13:48:06.490 ,0,1,0.,24.0,0.,24.0,0.,24.0,0.,24.0
1979-08-05 13:48:30.490 ,0,0,0.,24.0,0.,24.0,0.,24.0,0.,24.0
1979-08-05 13:48:54.490 ,0,1,0.,24.0,0.,24.0,0.,24.0,0.,24.0
1979-08-05 13:49:18.490 ,0,0,0.,24.0,0.,24.0,0.,24.0,0.,24.0
1979-08-05 13:49:42.490 ,1,1,0.,24.0,0.,24.0,0.,24.0,0.,24.0
1979-08-05 13:50:06.490 ,1,0,0.,24.0,0.,24.0,0.,24.0,0.,24.0
1979-08-05 13:50:30.490 ,2,1,0.,24.0,0.,24.0,0.,24.0,0.,24.0
1979-08-05 13:50:54.490 ,2,0,0.,24.0,0.,24.0,0.,24.0,0.,24.0
1979-08-05 13:51:18.490 ,3,1,0.,24.0,0.,24.0,0.,24.0,0.,24.0
1979-08-05 13:51:42.490 ,3,0,0.,24.0,0.,24.0,0.,24.0,0.,24.0
1979-08-05 13:52:06.490 ,4,1,0.,24.0,0.,24.0,0.,24.0,0.,24.0
1979-08-05 13:52:30.490 ,4,0,0.,24.0,0.,24.0,0.,24.0,0.,24.0
1979-08-05 13:52:54.490 ,5,1,0.,24.0,0.,24.0,0.,24.0,0.,24.0
1979-08-05 13:53:18.490 ,5,0,0.,24.0,0.,24.0,0.,24.0,0.,24.0
1979-08-05 13:53:42.490 ,6,1,0.,24.0,0.,24.0,0.,24.0,0.,24.0
1979-08-05 13:54:06.490 ,6,0,0.,24.0,0.,24.0,0.,24.0,0.,24.0
1979-08-05 13:54:30.490 ,7,0,0.,24.0,0.,24.0,0.,24.0,0.,24.0
1979-08-05 13:54:54.490 ,7,0,0.,24.0,0.,24.0,0.,24.0,0.,24.0
1979-08-05 13:55:18.490 ,5,1,0.,24.0,0.,24.0,0.,24.0,0.,24.0
1979-08-05 13:55:42.490 ,1,1,0.,24.0,0.,24.0,0.,24.0,0.,24.0
1979-08-05 13:56:06.490 ,2,1,0.,24.0,0.,24.0,0.,24.0,0.,24.0
1979-08-05 13:56:30.490 ,6,1,0.,24.0,0.,24.0,0.,24.0,0.,24.0
1979-08-05 13:56:54.490 ,5,1,0.,24.0,0.,24.0,0.,24.0,0.,24.0
1979-08-05 13:57:18.490 ,1,1,0.,24.0,0.,24.0,0.,24.0,0.,24.0
1979-08-05 13:57:42.490 ,2,1,0.,24.0,0.,24.0,0.,24.0,0.,24.0
1979-08-05 13:58:06.490 ,6,1,0.,24.0,0.,24.0,0.,24.0,0.,24.0
1979-08-05 13:58:30.490 ,5,1,0.,24.0,0.,24.0,0.,24.0,0.,24.0
1979-08-05 13:58:54.490 ,1,1,0.,24.0,0.,24.0,0.,24.0,0.,24.0
1979-08-05 13:59:18.490 ,2,1,0.,24.0,0.,24.0,0.,24.0,0.,24.0
1979-08-05 13:59:42.490 ,6,1,0.,24.0,0.,24.0,0.,24.0,0.,24.0
1979-08-05 14:00:06.490 ,5,1,0.,24.0,0.,24.0,0.,24.0,0.,24.0
1979-08-05 14:00:30.490 ,1,1,0.,24.0,0.,24.0,0.,24.0,0.,24.0
1979-08-05 14:00:54.490 ,2,1,0.,24.0,0.,24.0,0.,24.0,0.,24.0
1979-08-05 14:01:18.490 ,6,1,0.,24.0,0.,24.0,0.,24.0,0.,24.0
1979-08-05 14:01:42.490 ,5,1,0.,24.0,0.,24.0,0.,24.0,0.,24.0
1979-08-05 14:02:06.490 ,1,1,0.,24.0,0.,24.0,0.,24.0,0.,24.0
1979-08-05 14:02:30.490 ,2,1,0.,24.0,0.,24.0,0.,24.0,0.,24.0
1979-08-05 14:02:54.490 ,6,1,0.,24.0,0.,24.0,0.,24.0,0.,24.0
1979-08-05 14:03:18.490 ,5,1,0.,24.0,0.,24.0,0.,24.0,0.,24.0
1979-08-05 14:03:42.490 ,1,1,0.,24.0,0.,24.0,0.,24.0,0.,24.0
1979-08-05 14:04:06.490 ,2,1,0.,24.0,0.,24.0,0.,24.0,0.,24.0
1979-08-05 14:04:30.490 ,6,1,0.,24.0,0.,24.0,0.,24.0,0.,24.0
1979-08-05 14:04:54.490 ,5,1,0.,24.0,0.,24.0,0.,24.0,0.,24.0
1979-08-05 14:05:18.490 ,1,1,0.,24.0,0.,24.0,0.,24.0,0.,24.0
1979-08-05 14:05:42.490 ,0,0,0.,24.0,0.,24.0,0.,24.0,0.,24.0
1979-08-05 14:06:06.490 ,0,0,0.,24.0,0.,24.0,0.,24.0,0.,24.0
1979-08-05 14:06:30.490 ,5,1,0.,24.0,0.,24.0,0.,24.0,0.,24.0
1979-08-05 14:06:54.490 ,5,0,0.,24.0,0.,24.0,0.,24.0,0.,24.0
1979-08-05 14:07:18.490 ,4,1,0.,24.0,0.,24.0,0.,24.0,0.,24.0
1979-08-05 14:07:42.490 ,4,0,0.,24.0,0.,24.0,0.,24.0,0.,24.0
1979-08-05 14:08:06.490 ,3,1,0.,24.0,0.,24.0,0.,24.0,0.,24.0
1979-08-05 14:08:30.490 ,3,0,0.,24.0,0.,24.0,0.,24.0,0.,24.0
1979-08-05 14:08:54.490 ,2,1,0.,24.0,0.,24.0,0.,24.0,0.,24.0
1979-08-05 14:09:18.490 ,2,0,0.,24.0,0.,24.0,0.,24.0,0.,24.0
1979-08-05 14:09:42.490 ,1,1,1.,24.0,0.,24.0,0.,24.0,0.,24.0
1979-08-05 14:10:06.490 ,1,0,0.,24.0,0.,24.0,0.,24.0,0.,24.0
1979-08-05 14:10:30.490 ,0,1,0.,24.0,0.,24.0,0.,24.0,0.,24.0
1979-08-05 14:10:54.490 ,0,0,0.,24.0,0.,24.0,0.,24.0,0.,24.0
1979-08-05 14:11:18.490 ,0,1,0.,24.0,0.,24.0,0.,24.0,0.,24.0
1979-08-05 14:11:42.490 ,0,0,0.,24.0,0.,24.0,0.,24.0,0.,24.0
1979-08-05 14:12:06.490 ,1,1,0.,24.0,0.,24.0,0.,24.0,0.,24.0
1979-08-05 14:12:30.490 ,1,0,0.,24.0,0.,24.0,0.,24.0,0.,24.0
1979-08-05 14:12:54.490 ,2,1,0.,24.0,0.,24.0,0.,24.0,0.,24.0
1979-08-05 14:13:18.490 ,2,0,0.,24.0,0.,24.0,0.,24.0,0.,24.0
1979-08-05 14:13:42.490 ,3,1,0.,24.0,0.,24.0,0.,24.0,0.,24.0
1979-08-05 14:14:06.490 ,3,0,0.,24.0,0.,24.0,0.,24.0,0.,24.0
1979-08-05 14:14:30.490 ,4,1,0.,24.0,0.,24.0,0.,24.0,0.,24.0
1979-08-05 14:14:54.490 ,4,0,0.,24.0,0.,24.0,0.,24.0,0.,24.0
1979-08-05 14:15:18.490 ,5,1,0.,24.0,0.,24.0,0.,24.0,0.,24.0
1979-08-05 14:15:42.490 ,5,0,0.,24.0,0.,24.0,0.,24.0,0.,24.0
1979-08-05 14:16:06.490 ,6,1,0.,24.0,0.,24.0,0.,24.0,0.,24.0
1979-08-05 14:16:30.490 ,6,0,0.,24.0,0.,24.0,0.,24.0,0.,24.0
1979-08-05 14:16:54.490 ,7,1,0.,24.0,0.,24.0,0.,24.0,0.,24.0
1979-08-05 14:17:18.490 ,7,0,0.,24.0,0.,24.0,0.,24.0,0.,24.0
1979-08-05 14:17:42.490 ,7,1,0.,24.0,0.,24.0,0.,24.0,0.,24.0
1979-08-05 14:18:06.490 ,7,0,0.,24.0,0.,24.0,0.,24.0,0.,24.0
1979-08-05 14:18:30.490 ,6,1,0.,24.0,0.,24.0,0.,24.0,0.,24.0
1979-08-05 14:18:54.490 ,6,0,0.,24.0,0.,24.0,0.,24.0,0.,24.0
1979-08-05 14:19:18.490 ,5,1,0.,24.0,0.,24.0,0.,24.0,0.,24.0
1979-08-05 14:19:42.490 ,5,0,0.,24.0,0.,24.0,0.,24.0,0.,24.0
1979-08-05 14:20:06.490 ,4,1,0.,24.0,0.,24.0,0.,24.0,0.,24.0
1979-08-05 14:20:30.490 ,4,0,0.,24.0,0.,24.0,0.,24.0,0.,24.0
1979-08-05 14:20:54.490 ,3,1,0.,24.0,0.,24.0,0.,24.0,0.,24.0
1979-08-05 14:21:18.490 ,3,0,0.,24.0,0.,24.0,0.,24.0,0.,24.0
1979-08-05 14:21:42.490 ,2,1,0.,24.0,0.,24.0,0.,24.0,0.,24.0
1979-08-05 14:22:06.490 ,2,0,0.,24.0,0.,24.0,0.,24.0,0.,24.0
1979-08-05 14:22:30.490 ,1,1,0.,24.0,0.,24.0,0.,24.0,0.,24.0
1979-08-05 14:22:54.490 ,1,0,0.,24.0,0.,24.0,0.,24.0,0.,24.0
1979-08-05 14:23:18.490 ,0,1,0.,24.0,0.,24.0,0.,24.0,0.,24.0
1979-08-05 14:23:42.490 ,0,0,0.,24.0,0.,24.0,0.,24.0,0.,24.0
1979-08-05 14:24:06.490 ,0,1,0.,24.0,0.,24.0,0.,24.0,0.,24.0
1979-08-05 14:24:30.490 ,0,0,0.,24.0,0.,24.0,0.,24.0,0.,24.0
1979-08-05 14:24:54.490 ,1,1,0.,24.0,0.,24.0,0.,24.0,0.,24.0
1979-08-05 14:25:18.490 ,1,0,0.,24.0,0.,24.0,0.,24.0,0.,24.0
1979-08-05 14:25:42.490 ,2,1,0.,24.0,0.,24.0,0.,24.0,0.,24.0
1979-08-05 14:26:06.490 ,2,0,0.,24.0,0.,24.0,0.,24.0,0.,24.0
1979-08-05 14:26:30.490 ,3,1,0.,24.0,0.,24.0,0.,24.0,0.,24.0
1979-08-05 14:26:54.490 ,3,0,0.,24.0,0.,24.0,0.,24.0,0.,24.0
1979-08-05 14:27:18.490 ,4,1,0.,24.0,0.,24.0,0.,24.0,0.,24.0
1979-08-05 14:27:42.490 ,4,0,0.,24.0,0.,24.0,0.,24.0,0.,24.0
1979-08-05 14:28:06.490 ,5,1,0.,24.0,0.,24.0,0.,24.0,0.,24.0
1979-08-05 14:28:30.490 ,5,0,0.,24.0,0.,24.0,0.,24.0,0.,24.0
1979-08-05 14:28:54.490 ,6,1,0.,24.0,0.,24.0,0.,24.0,0.,24.0
1979-08-05 14:29:18.490 ,6,0,0.,24.0,0.,24.0,0.,24.0,0.,24.0
1979-08-05 14:29:42.490 ,7,1,0.,24.0,0.,24.0,0.,24.0,0.,24.0
1979-08-05 14:30:06.490 ,7,0,0.,24.0,0.,24.0,0.,24.0,0.,24.0
1979-08-05 14:30:30.490 ,7,1,0.,24.0,0.,24.0,0.,24.0,0.,24.0
1979-08-05 14:30:54.490 ,7,0,1.,24.0,0.,24.0,0.,24.0,0.,24.0
1979-08-05 14:31:18.490 ,6,1,0.,24.0,0.,24.0,0.,24.0,0.,24.0
1979-08-05 14:31:42.490 ,0,0,0.,24.0,0.,24.0,0.,24.0,0.,24.0
1979-08-05 14:32:06.490 ,5,1,0.,24.0,0.,24.0,0.,24.0,0.,24.0
1979-08-05 14:32:30.490 ,5,0,0.,24.0,0.,24.0,0.,24.0,0.,24.0
1979-08-05 14:32:54.490 ,4,1,0.,24.0,0.,24.0,0.,24.0,0.,24.0
1979-08-05 14:33:18.490 ,4,0,0.,24.0,0.,24.0,0.,24.0,0.,24.0
1979-08-05 14:33:42.490 ,3,1,0.,24.0,0.,24.0,0.,24.0,0.,24.0
1979-08-05 14:34:06.490 ,3,0,0.,24.0,0.,24.0,0.,24.0,0.,24.0
1979-08-05 14:34:30.490 ,2,1,0.,24.0,0.,24.0,0.,24.0,0.,24.0
1979-08-05 14:34:54.490 ,2,0,0.,24.0,0.,24.0,0.,24.0,0.,24.0